Regional Weather Roundup
Issued by NWS

Home | Current Version | Previous Version | Graphics & Text | Print | Product List | Glossary On
Versions: 1 2 3 4 5 6 7 8 9 10 11 12 13 14 15 16 17 18 19 20 21 22 23 24 25 26 27 28 29 30 31 32 33 34 35 36 37 38 39 40 41 42 43 44 45 46 47 48 49 50
000
ASUS43 KFSD 270002
RWRSD

WEATHER ROUNDUP FOR SOUTH DAKOTA
NATIONAL WEATHER SERVICE SIOUX FALLS SD
600 PM CST SUN FEB 26 2017

NOTE: "FAIR" INDICATES FEW OR NO CLOUDS BELOW 12,000 FEET WITH NO
SIGNIFICANT WEATHER AND/OR OBSTRUCTIONS TO VISIBILITY.


SDZ001>005-009-010-012>017-270100-
NORTHWEST AND NORTH CENTRAL SOUTH DAKOTA

CITY           SKY/WX    TMP DP  RH WIND       PRES   REMARKS
BUFFALO          N/A     31  20  63 NW16      29.67R WCI  20
FAITH            N/A     34  21  59 NW14      29.75R WCI  25
MOBRIDGE       CLOUDY    37  23  56 NW7       29.75R
$$

SDZ012>016-024>037-041>051-057-063-072>074-270100-
SOUTHWEST AND SOUTH CENTRAL SOUTH DAKOTA

CITY           SKY/WX    TMP DP  RH WIND       PRES   REMARKS
RAPID CTY ARPT CLEAR     35  16  45 NE6       29.74F
PIERRE         MOCLDY    40  15  36 W8        29.78R
CUSTER         CLOUDY    21   7  54 W10       29.69R WCI  10
ELLSWORTH AFB  CLEAR     36  13  37 E5        29.74S
PHILIP         MOCLDY    39  13  34 SW13      29.79R
PINE RIDGE     CLOUDY    25  14  63 CALM      29.81F
SPEARFISH      FAIR      32  10  40 NW8       29.73S WCI  25
WINNER         FAIR      33  22  63 SW12      29.82S WCI  24
$$

SDZ004>011-016>023-039-040-270100-
NORTHEAST SOUTH DAKOTA

CITY           SKY/WX    TMP DP  RH WIND       PRES   REMARKS
ABERDEEN       CLOUDY    31  20  63 E7        29.82R WCI  24
WATERTOWN      PTCLDY    32  20  61 CALM      29.81S
BROOKINGS      PTCLDY    35  24  64 S9        29.83R WCI  28
SISSETON         N/A     24  17  74 E6        29.87S WCI  17
$$

SDZ017-020-022-023-036>040-048>070-270100-
SOUTHEAST SOUTH DAKOTA

CITY           SKY/WX    TMP DP  RH WIND       PRES   REMARKS
SIOUX FALLS    PTCLDY    33  24  69 SW7       29.88S WCI  27
HURON          CLEAR     35  18  49 W6        29.81R
CHAMBERLAIN    CLEAR     38  22  51 S9        29.83R
MITCHELL       CLEAR     36  24  62 S10       29.86R
YANKTON        CLEAR     36  21  55 SW7       29.90R
$$

ABBREVIATIONS USED IN REMARKS
   TC - TEMPERATURE IN CELSIUS
  WCI - WIND CHILL INDEX
   HX - HEAT INDEX
  VSB - VISIBILITY




USA.gov is the U.S. government's official web portal to all federal, state and local government web resources and services.